Home   Weather   Neunkirchen   Past weeks

Flag for Austria Past Weather in Neunkirchen, Lower Austria, Austria — Yesterday and Last 2 Weeks

Now
42 °F

Passing clouds.


Feels Like: 39 °F
Forecast: 39 / 66 °F
Wind: 5 mph from Northwest

Location: Eisenstadt

Current Time: Apr 24, 2017 at 3:57:11 am

Latest Report: Apr 24, 2017 at 2:00 am


Visibility: 13 mi

Pressure: 30.22 "Hg

Humidity: 62%

Dew Point: 29 °F

Location of NeunkirchenLocation

Past Weather in Neunkirchen — Graph

°F

Neunkirchen Temperature Yesterday

Maximum temperature yesterday: 54 °F (at 3:00 pm)
Minimum temperature yesterday: 40 °F (at 4:00 am)
Average temperature yesterday: 46 °F

High & Low Weather Summary for the Past Weeks

 TemperatureHumidityPressure
High71 °F (Apr 10, 5:00 pm)95% (Apr 19, 9:00 pm)30.48 "Hg (Apr 19, 9:00 pm)
Low31 °F (Apr 21, 6:00 am)37% (Apr 9, 4:00 pm)29.82 "Hg (Apr 13, 7:00 am)
Average49 °F65%30.09 "Hg
* Reported Apr 9 2:00 am — Apr 24 2:00 am, Neunkirchen, Weather by CustomWeather, © 2017

Note: Actual official high and low records may vary slightly from our data, if they occured in-between our weather recording intervals... More about our weather records

Advertising

Neunkirchen Weather History for the Previous 24 Hours

Scroll right to see more
 ConditionsComfort  
Time TempWeatherWind HumidityBarometerVisibility
2:00 am
Mon, Apr 24
42 °FPassing clouds.5 mph62%30.22 "Hg12 mi
1:00 am42 °FQuite cool.3 mph62%30.22 "HgN/A
12:00 am44 °FQuite cool.3 mph63%30.22 "HgN/A
11:00 pm
Sun, Apr 23
44 °FOvercast.2 mph64%30.21 "Hg12 mi
10:00 pm47 °FCool.3 mph54%30.19 "HgN/A
9:00 pm49 °FCool.5 mph48%30.17 "HgN/A
8:00 pm49 °FPassing clouds.5 mph46%30.14 "Hg12 mi
7:00 pm51 °FPartly sunny.6 mph43%30.12 "Hg19 mi
6:00 pm51 °FCool.6 mph42%30.11 "HgN/A
5:00 pm51 °FOvercast.2 mph47%30.11 "Hg19 mi
4:00 pm53 °FCool.7 mph38%30.11 "HgN/A
3:00 pm54 °FCool.7 mph37%30.11 "HgN/A
1:00 pm50 °FCool.10 mph52%30.12 "HgN/A
12:00 pm49 °FCool.8 mph49%30.13 "HgN/A
11:00 am49 °FCool.7 mph49%30.13 "HgN/A
10:00 am47 °FCool.8 mph57%30.13 "HgN/A
9:00 am46 °FCool.6 mph62%30.12 "HgN/A
8:00 am44 °FScattered clouds.7 mph67%30.13 "Hg9 mi
7:00 am41 °FScattered clouds.3 mph77%30.11 "Hg12 mi
6:00 am40 °FScattered clouds.3 mph80%30.09 "Hg7 mi
5:00 am40 °FOvercast.3 mph81%30.09 "Hg7 mi
4:00 am40 °FOvercast.3 mph82%30.07 "Hg5 mi
3:00 am41 °FQuite cool.3 mph80%30.07 "HgN/A
Weather by CustomWeather, © 2017

See weather overviewHow to use our weather pages